Lid_Strength_Index
2 2 2 2 2 2 2 3 3 3 2 2 2 2 2 2 2 5 7 5 3 1 2 5 6 5 3 6 7 7 10 12 11 10 9 6 7 6 5 6 6 5 5 4 2
3 3 3 3 2 2 2 2 3 3 3 3 3 2 2 1 4 7 2 1 2 1 5 6 8 7 6 6 9 9 11 10 7 7 8 7 7 6 7 7 7 6 4 3 3
3 3 3 3 3 2 2 3 3 3 3 3 3 3 3 3 7 5 1 1 2 2 4 5 7 7 7 7 8 9 11 8 7 6 6 7 7 6 7 8 6 6 5 4 4
3 3 2 3 2 2 2 2 2 3 3 3 3 3 3 5 13 3 -1 0 1 3 4 7 8 9 8 10 7 11 9 9 8 9 7 8 6 7 6 6 4 4 4 4 5
2 2 2 2 2 2 2 2 2 3 3 3 3 4 5 9 9 3 -0 0 2 3 5 8 9 10 10 8 8 10 10 9 8 8 9 7 7 7 7 6 5 4 4 5 4
1 1 2 2 2 2 2 2 2 2 3 3 3 3 8 13 6 4 4 3 4 4 5 6 9 9 10 8 9 8 8 8 7 9 9 9 8 7 6 5 5 5 5 5 4
1 1 1 1 1 1 2 2 2 2 2 3 4 5 9 10 6 5 4 4 4 4 5 5 6 9 10 10 6 9 11 10 8 8 9 9 10 10 6 5 5 5 5 5 4
1 0 1 1 1 0 0 0 0 1 1 2 3 6 11 6 5 6 6 6 4 3 3 3 4 8 11 9 8 10 11 14 9 8 8 10 14 9 6 6 7 6 5 5 4
0 0 -1 -2 -2 -2 -2 -2 -2 -2 -1 0 3 6 12 5 8 6 6 7 6 5 3 3 4 9 10 14 13 11 15 14 12 8 9 10 14 9 8 7 6 6 6 5 5
-1 -2 -2 -2 -2 -2 -2 -2 -2 -2 -1 -0 2 9 9 10 6 6 5 6 7 7 7 6 6 11 12 15 18 16 15 13 13 10 9 10 12 10 9 9 7 7 6 6 5
-2 -2 -2 -1 -2 -2 -1 1 3 4 3 5 5 6 7 6 5 6 5 6 7 8 11 7 11 13 13 13 13 12 13 13 11 9 10 11 11 10 9 10 11 11 8 6 5
-2 -2 -1 -1 -1 -2 -1 3 3 3 8 4 3 4 4 5 10 8 6 9 9 12 10 11 13 10 9 10 12 13 14 14 12 11 11 12 12 10 10 9 10 10 10 9 6
-2 -2 -1 -1 -1 -1 2 3 -0 0 7 6 4 5 5 5 8 8 7 8 11 12 12 14 12 9 10 11 12 12 14 14 14 13 14 15 15 12 10 9 9 10 9 9 9
-2 -2 -1 -1 1 1 3 1 -0 -0 11 9 7 5 4 4 9 4 5 8 10 12 11 12 10 10 11 11 11 14 11 11 12 14 17 13 18 14 12 11 9 9 10 10 9
-2 -1 -1 -0 2 3 2 -0 -0 2 20 8 7 2 4 7 6 6 4 7 11 11 10 12 12 11 12 12 10 13 10 10 11 13 15 16 18 17 13 13 12 10 11 11 10
-1 -1 -1 1 -0 1 -0 -0 2 12 19 13 7 8 8 7 7 5 6 4 6 10 10 12 9 10 11 9 10 10 11 11 11 13 19 16 17 17 14 13 12 10 11 12 13
-1 -1 -1 -0 3 -1 -0 3 13 17 10 13 12 9 9 9 9 8 9 10 12 15 15 11 11 10 10 10 10 11 13 19 19 20 21 15 16 16 12 13 13 14 13 13 12
-2 -1 -0 -0 -1 -0 2 9 17 14 14 8 8 9 11 10 9 10 10 12 10 11 14 16 17 12 9 11 12 13 12 17 22 21 20 14 18 17 11 10 13 13 13 12 11
-2 -0 0 0 -1 0 6 14 15 13 9 10 9 12 13 10 10 11 11 12 10 10 15 15 16 9 9 9 8 12 13 11 15 17 17 16 15 13 12 12 12 12 11 11 11
1 2 2 -1 -1 2 9 12 12 8 8 8 13 11 15 13 13 12 12 10 10 9 9 12 16 12 10 8 8 10 9 14 14 23 23 17 18 16 14 13 11 11 11 11 10
1 6 1 -1 0 6 13 12 12 7 7 9 11 12 12 13 12 13 13 10 9 10 9 11 13 14 11 13 13 11 12 12 12 15 18 19 19 13 12 11 11 11 10 10 10
3 9 1 -0 8 9 11 11 7 8 7 8 8 9 10 10 13 12 13 11 7 8 12 10 13 16 14 11 9 9 11 11 15 17 15 15 18 11 10 9 10 10 10 10 9
7 7 1 2 12 11 11 10 8 9 8 9 10 8 8 10 14 11 11 8 7 9 11 10 14 18 17 13 11 13 11 10 11 13 16 18 17 10 9 10 9 10 9 9 9
7 10 8 6 8 10 13 12 12 6 8 7 9 8 10 11 9 12 11 8 7 8 7 8 12 15 19 16 14 15 13 11 11 17 16 15 14 12 11 10 10 9 9 9 9
7 11 11 12 10 11 11 10 11 11 9 7 9 9 11 15 12 12 11 10 8 7 8 10 15 14 13 13 13 14 14 13 14 13 16 13 13 12 10 10 10 9 9 10 10
9 11 11 13 11 11 12 12 11 10 10 11 11 9 9 13 11 13 11 11 11 10 10 9 14 14 16 13 13 14 14 13 13 12 13 13 13 9 10 10 11 10 10 11 11
7 8 8 11 13 14 12 12 11 10 9 8 9 10 10 9 7 8 8 9 9 11 11 11 13 16 19 15 15 18 16 13 13 11 11 14 11 9 11 10 10 10 10 11 11